Charles City, IA

12:39 PM CDT on May 23, 2018 (GMT -0500)
Charles City Municipal

Weather History for KCCY - April, 2013

Change the Weather History Date:

Sunday, April 14, 2013

  Actual Average Record
Temperature  
Mean Temperature 43 °F -  
Max Temperature 53 °F 57 °F 87 °F (2003)
Min Temperature 33 °F 36 °F 22 °F (1950)
Degree Days  
Heating Degree Days 22    
Moisture  
Dew Point 38 °F    
Average Humidity 88    
Maximum Humidity 100    
Minimum Humidity 71    
Precipitation  
Precipitation 1.37 in - - ()
Sea Level Pressure  
Sea Level Pressure 29.65 in    
Wind  
Wind Speed 17 mph (ESE)    
Max Wind Speed 28 mph    
Max Gust Speed 36 mph    
Visibility 6 miles    
Events Rain , Snow    
Averages and records for this station are not official NWS values.
T = Trace of Precipitation, MM = Missing Value Source: NWS Daily Summary

Daily Weather History Graph

Daily Weather History Graph

Search for Another Location

Airport or City:

Astronomy

Apr. 14, 2013 Rise Set
Actual Time 6:29 AM CDT 7:52 PM CDT
Civil Twilight 6:00 AM CDT 8:21 PM CDT
Nautical Twilight 5:24 AM CDT 8:57 PM CDT
Astronomical Twilight 4:47 AM CDT 9:35 PM CDT
Moon 9:02 AM CDT (4/14) No Moon Set
Length of Visible Light 14h 21m
Length of Day
13h 22m
Waxing Crescent, 17% of the Moon is Illuminated
Apr 14
Waxing Crescent
Apr 18
First Quarter
Apr 25
Full
May 2
Last Quarter
May 9
New

Hourly Weather History & Observations

Time (CDT) Temp. Windchill Dew Point Humidity Pressure Visibility Wind Dir Wind Speed Gust Speed Precip Events Conditions
12:15 AM 35.6 °F 26.6 °F 28.4 °F 75% 29.91 in 10.0 mi ENE 13.8 mph - N/A   Overcast
12:35 AM 35.6 °F 26.2 °F 28.4 °F 75% 29.90 in 10.0 mi East 15.0 mph 20.7 mph N/A   Overcast
12:55 AM 35.6 °F 25.9 °F 28.4 °F 75% 29.89 in 10.0 mi East 16.1 mph - N/A   Overcast
1:15 AM 35.6 °F 25.5 °F 28.4 °F 75% 29.88 in 10.0 mi East 17.3 mph - N/A   Overcast
1:35 AM 33.8 °F 23.5 °F 28.4 °F 81% 29.88 in 10.0 mi East 16.1 mph 23.0 mph N/A   Overcast
1:55 AM 33.8 °F 23.5 °F 28.4 °F 81% 29.87 in 10.0 mi East 16.1 mph 21.9 mph N/A   Overcast
2:15 AM 33.8 °F 23.2 °F 28.4 °F 81% 29.86 in 10.0 mi East 17.3 mph - N/A Rain Light Rain
2:35 AM 33.8 °F 23.9 °F 28.4 °F 81% 29.85 in 7.0 mi East 15.0 mph 20.7 mph N/A Rain Light Rain
2:55 AM 33.8 °F 23.2 °F 28.4 °F 81% 29.86 in 4.0 mi ESE 17.3 mph - 0.02 in   Overcast
3:15 AM 33.8 °F 22.8 °F 30.2 °F 87% 29.85 in 3.0 mi East 18.4 mph - N/A   Overcast
3:35 AM 33.8 °F 23.9 °F 30.2 °F 87% 29.86 in 3.0 mi East 15.0 mph - N/A   Overcast
3:55 AM 33.8 °F 23.9 °F 30.2 °F 87% 29.86 in 4.0 mi East 15.0 mph 20.7 mph 0.11 in Rain Light Rain
4:35 AM 33.8 °F 24.8 °F 30.2 °F 87% 29.84 in 4.0 mi East 12.7 mph 20.7 mph N/A Rain Light Rain
4:55 AM 33.8 °F 23.2 °F 30.2 °F 87% 29.84 in 5.0 mi East 17.3 mph - 0.04 in Rain Light Rain
5:15 AM 33.8 °F 23.2 °F 32.0 °F 93% 29.82 in 5.0 mi East 17.3 mph - N/A Rain Light Rain
5:35 AM 33.8 °F 23.5 °F 32.0 °F 93% 29.81 in 6.0 mi East 16.1 mph 21.9 mph N/A Rain Light Rain
5:55 AM 33.8 °F 22.5 °F 32.0 °F 93% 29.79 in 4.0 mi East 19.6 mph - 0.05 in Rain Light Rain
6:15 AM 33.8 °F 22.8 °F 32.0 °F 93% 29.77 in 4.0 mi East 18.4 mph 25.3 mph N/A Rain Light Rain
6:35 AM 33.8 °F 21.6 °F 32.0 °F 93% 29.76 in 4.0 mi East 23.0 mph 28.8 mph N/A Rain Light Rain
6:55 AM 33.8 °F 22.2 °F 32.0 °F 93% 29.76 in 4.0 mi East 20.7 mph 26.5 mph 0.06 in Rain Light Rain
7:15 AM 33.8 °F 22.2 °F 32.0 °F 93% 29.75 in 3.0 mi East 20.7 mph - N/A   Overcast
7:35 AM 33.8 °F 21.9 °F 32.0 °F 93% 29.76 in 2.5 mi East 21.9 mph - N/A   Overcast
7:55 AM 33.8 °F 22.8 °F 32.0 °F 93% 29.76 in 2.0 mi East 18.4 mph 25.3 mph 0.15 in   Overcast
8:15 AM 33.8 °F 21.9 °F 32.0 °F 93% 29.74 in 1.8 mi East 21.9 mph 27.6 mph N/A Snow Light Snow
8:35 AM 33.8 °F 22.5 °F 32.0 °F 93% 29.72 in 2.5 mi East 19.6 mph 29.9 mph N/A Snow Light Snow
8:55 AM 33.8 °F 21.6 °F 32.0 °F 93% 29.71 in 1.8 mi East 23.0 mph 33.4 mph 0.22 in Rain Light Rain
9:15 AM 33.8 °F 21.9 °F 32.0 °F 93% 29.69 in 2.0 mi East 21.9 mph 29.9 mph N/A Rain Light Rain
9:35 AM 33.8 °F 21.6 °F 32.0 °F 93% 29.69 in 2.0 mi East 23.0 mph 28.8 mph N/A Snow Light Snow
9:55 AM 35.6 °F 24.0 °F 32.0 °F 87% 29.69 in 3.0 mi East 23.0 mph 29.9 mph 0.14 in Snow Light Snow
10:15 AM 35.6 °F 23.4 °F 32.0 °F 87% 29.69 in 4.0 mi ESE 25.3 mph 35.7 mph N/A Rain Light Rain
10:35 AM 35.6 °F 23.7 °F 32.0 °F 87% 29.67 in 5.0 mi ESE 24.2 mph 31.1 mph N/A   Light Drizzle
10:55 AM 35.6 °F 23.2 °F 33.8 °F 93% 29.67 in 4.0 mi ESE 26.5 mph 33.4 mph 0.06 in Rain Light Rain
11:15 AM 37.4 °F 26.1 °F 33.8 °F 87% 29.65 in 9.0 mi ESE 24.2 mph 35.7 mph N/A   Overcast
11:35 AM 37.4 °F 25.4 °F 33.8 °F 87% 29.64 in 10.0 mi ESE 27.6 mph - N/A   Overcast
11:55 AM 37.4 °F 26.4 °F 33.8 °F 87% 29.62 in 10.0 mi East 23.0 mph 35.7 mph N/A   Mostly Cloudy
12:15 PM 37.4 °F 26.6 °F 35.6 °F 93% 29.60 in 8.0 mi ESE 21.9 mph 33.4 mph N/A Rain Light Rain
12:35 PM 39.2 °F 28.5 °F 35.6 °F 87% 29.59 in 5.0 mi East 24.2 mph 33.4 mph N/A Rain Light Rain
12:55 PM 39.2 °F 27.8 °F 35.6 °F 87% 29.57 in 9.0 mi ESE 27.6 mph 34.5 mph 0.01 in   Scattered Clouds
1:15 PM 39.2 °F 28.7 °F 37.4 °F 93% 29.56 in 8.0 mi ESE 23.0 mph 35.7 mph N/A   Mostly Cloudy
1:35 PM 41.0 °F 31.1 °F 37.4 °F 87% 29.56 in 7.0 mi ESE 23.0 mph 28.8 mph N/A Rain Light Rain
1:55 PM 41.0 °F 31.9 °F 39.2 °F 93% 29.55 in 9.0 mi East 19.6 mph - N/A   Scattered Clouds
2:15 PM 42.8 °F 33.3 °F 39.2 °F 87% 29.54 in 8.0 mi ESE 24.2 mph 29.9 mph N/A   Mostly Cloudy
2:35 PM 44.6 °F 36.4 °F 41.0 °F 87% 29.53 in 8.0 mi ESE 20.7 mph - N/A   Mostly Cloudy
2:55 PM 44.6 °F 36.9 °F 41.0 °F 87% 29.52 in 5.0 mi ESE 18.4 mph 26.5 mph N/A Rain Light Rain
3:15 PM 44.6 °F 36.6 °F 41.0 °F 87% 29.51 in 8.0 mi East 19.6 mph 27.6 mph N/A   Mostly Cloudy
3:35 PM 46.4 °F 38.7 °F 42.8 °F 87% 29.50 in 9.0 mi East 20.7 mph - N/A   Overcast
3:55 PM 46.4 °F 39.2 °F 44.6 °F 93% 29.48 in 2.0 mi East 18.4 mph 26.5 mph 0.02 in Rain Light Rain
4:15 PM 48.2 °F - 44.6 °F 87% 29.46 in 3.0 mi ESE 20.7 mph 27.6 mph N/A Rain Light Rain
4:35 PM 50.0 °F - 46.4 °F 87% 29.46 in 2.0 mi ESE 15.0 mph 25.3 mph N/A Rain Light Rain
4:55 PM 50.0 °F - 46.4 °F 87% 29.46 in 2.5 mi ESE 13.8 mph 20.7 mph 0.08 in Rain Light Rain
5:15 PM 50.0 °F - 46.4 °F 87% 29.46 in 3.0 mi ESE 6.9 mph - N/A Rain Light Rain
5:35 PM 50.0 °F - 48.2 °F 94% 29.46 in 1.5 mi ESE 10.4 mph - N/A Rain Rain
5:55 PM 50.0 °F - 48.2 °F 94% 29.46 in 4.0 mi East 5.8 mph - 0.13 in Rain Light Rain
6:15 PM 50.0 °F - 48.2 °F 94% 29.45 in 1.0 mi East 12.7 mph - N/A   Overcast
6:35 PM 50.0 °F - 50.0 °F 100% 29.44 in 3.0 mi East 10.4 mph 18.4 mph N/A   Overcast
6:55 PM 51.8 °F - 50.0 °F 94% 29.45 in 2.5 mi SE 8.1 mph 15.0 mph 0.16 in Rain Light Rain
7:15 PM 53.6 °F - 51.8 °F 94% 29.47 in 3.0 mi SSW 5.8 mph - N/A Rain Rain
7:35 PM 51.8 °F - 50.0 °F 94% 29.48 in 2.5 mi West 4.6 mph - N/A Rain Light Rain
7:55 PM 53.6 °F - 51.8 °F 94% 29.49 in 4.0 mi SW 5.8 mph - 0.09 in Rain Light Rain
8:15 PM 53.6 °F - 51.8 °F 94% 29.50 in 5.0 mi SW 6.9 mph 13.8 mph N/A Rain Light Rain
8:35 PM 51.8 °F - 50.0 °F 94% 29.52 in 9.0 mi SW 5.8 mph - N/A Rain Light Rain
8:55 PM 53.6 °F - 50.0 °F 88% 29.55 in 9.0 mi WSW 19.6 mph 27.6 mph 0.03 in   Overcast
9:15 PM 51.8 °F - 46.4 °F 82% 29.58 in 10.0 mi West 15.0 mph 20.7 mph N/A   Mostly Cloudy
9:35 PM 50.0 °F - 46.4 °F 87% 29.58 in 10.0 mi West 8.1 mph 15.0 mph N/A   Mostly Cloudy
9:55 PM 50.0 °F - 46.4 °F 87% 29.59 in 10.0 mi WNW 9.2 mph - N/A   Overcast
10:15 PM 48.2 °F - 44.6 °F 87% 29.59 in 10.0 mi NW 10.4 mph - N/A   Overcast
10:35 PM 48.2 °F - 39.2 °F 71% 29.61 in 10.0 mi WNW 12.7 mph - N/A   Overcast
10:55 PM 48.2 °F - 39.2 °F 71% 29.61 in 10.0 mi West 11.5 mph - N/A   Overcast
11:15 PM 46.4 °F 42.9 °F 39.2 °F 76% 29.61 in 10.0 mi WNW 6.9 mph - N/A   Overcast
11:35 PM 44.6 °F 42.2 °F 39.2 °F 81% 29.63 in 10.0 mi WSW 4.6 mph - N/A   Overcast
11:55 PM 44.6 °F 43.1 °F 39.2 °F 81% 29.63 in 10.0 mi WSW 3.5 mph - N/A   Overcast